{"data":{"norad_id":58938,"epoch":"2026-05-25T04:02:18.184992Z","epoch_age_seconds":60702,"freshness":"FRESH","line1":"1 58938U 24027H   26145.16826603 -.00000992  00000+0 -21373-4 0  9999","line2":"2 58938  53.1626 314.6638 0001196  84.9985 275.1152 15.30186191129032","mean_motion":15.30186191,"eccentricity":0.0001196,"inclination_deg":53.1626,"raan_deg":314.6638,"arg_perigee_deg":84.9985,"mean_anomaly_deg":275.1152,"bstar":-2.1373e-5,"rev_number":12903,"period_min":94.106194949971,"perigee_km":474.43663507552,"apogee_km":476.0759667531,"semimajor_km":6853.3933009143,"source":"CELESTRAK","updated_at":"2026-05-25T13:38:18.789541Z"}}